DK4DAX-2 Weather Reports


time (UTC)temp
F
wind
direction
speed
knots
gust
knots
rain 1hr
in
rain 24hr
in
rain mn
in
humidity
%
barometer
mb
20260506144502 53 123 0.9 1.7 0.00 0.01 0.01 89 1000.5
20260506143002 54 333 0.0 3.5 0.00 0.01 0.01 88 1000.5
20260506141503 54 121 0.0 1.7 0.00 0.01 0.01 88 1000.3
20260506140002 54 27 0.0 1.7 0.00 0.01 0.01 88 1000.2
20260506134502 55 126 0.0 3.5 0.00 0.01 0.01 88 1000.2
20260506133003 55 124 0.0 1.7 0.00 0.01 0.01 89 1000.2
20260506131503 54 112 0.0 1.7 0.00 0.01 0.01 87 1000.3
20260506130003 55 270 0.0 1.7 0.00 0.01 0.01 87 1000.1
20260506124503 55 155 0.0 1.7 0.00 0.01 0.01 88 999.6
20260506123003 55 145 1.7 1.7 0.00 0.01 0.01 88 999.7
20260506121502 56 0 0.0 0.0 0.00 0.01 0.01 88 999.8
20260506120003 55 83 0.0 1.7 0.00 0.01 0.01 88 999.8
20260506114502 55 140 0.0 2.6 0.00 0.01 0.01 86 999.4
20260506113002 56 183 0.9 2.6 0.00 0.01 0.01 86 999.3
20260506111502 57 123 0.0 1.7 0.00 0.01 0.01 89 999.2
20260506110003 56 237 0.0 2.6 0.00 0.01 0.01 91 999.0
20260506104502 56 172 0.0 1.7 0.00 0.01 0.01 92 999.1
20260506103003 55 200 0.0 1.7 0.00 0.01 0.01 91 999.1
20260506101503 56 139 0.0 1.7 0.00 0.01 0.01 92 998.9
20260506100002 56 205 0.0 1.7 0.00 0.01 0.01 93 998.7
20260506094503 56 225 0.0 0.9 0.00 0.01 0.01 94 998.8
20260506093003 56 90 0.0 0.9 0.00 0.01 0.01 94 998.6
20260506091502 55 314 0.0 0.9 0.00 0.01 0.01 95 998.4
20260506090003 55 225 0.0 1.7 0.00 0.01 0.01 96 998.6
20260506084502 55 0 0.0 0.0 0.00 0.01 0.01 97 998.4
20260506083002 55 135 0.0 0.9 0.00 0.01 0.01 97 998.5
20260506081502 55 181 0.0 1.7 0.00 0.01 0.01 97 998.0
20260506073003 54 0 0.0 0.0 0.00 0.01 0.01 97 997.8
20260506071503 54 0 0.0 0.0 0.00 0.01 0.01 97 998.1
20260506061502 54 0 0.0 0.0 0.00 0.01 0.01 97 997.7
20260506044502 53 270 0.0 1.7 0.00 0.01 0.01 98 997.6
20260506043002 53 0 0.0 0.0 0.00 0.01 0.01 98 997.7
20260506041503 53 0 0.0 0.0 0.00 0.01 0.01 98 998.0
20260506040003 53 0 0.0 0.0 0.00 0.01 0.01 98 997.4
20260506034503 53 122 0.0 0.9 0.00 0.01 0.01 98 997.6
20260506033003 53 0 0.0 0.0 0.00 0.01 0.01 98 997.6
20260506031502 53 0 0.0 0.0 0.00 0.01 0.01 98 997.8
20260506030003 53 0 0.0 0.0 0.01 0.01 0.01 98 998.0
20260506024503 53 135 0.0 0.9 0.01 0.01 0.01 98 998.0
20260506023003 54 0 0.0 0.0 0.01 0.01 0.01 97 998.1
20260506021503 54 0 0.0 0.0 0.01 0.01 0.01 97 998.4
20260506020002 54 0 0.0 0.0 0.00 0.00 0.00 97 998.2
20260506014503 54 0 0.0 0.0 0.00 0.00 0.00 97 998.4
20260506013003 54 181 0.0 0.9 0.00 0.00 0.00 97 998.5
20260506011502 54 182 0.0 2.6 0.00 0.00 0.00 97 998.5
20260506010003 54 154 0.0 1.7 0.00 0.00 0.00 97 998.6
20260506004503 54 129 0.0 1.7 0.00 0.00 0.00 97 998.7
20260506003003 54 173 0.0 1.7 0.00 0.00 0.00 97 998.9
20260506001503 54 147 0.0 0.9 0.00 0.00 0.00 97 999.1
20260506000003 54 191 0.9 1.7 0.00 0.00 0.00 97 999.1
20260505234503 54 143 0.0 1.7 0.00 0.00 0.00 97 999.2
20260505233003 54 147 0.0 1.7 0.00 0.00 0.00 97 999.3
20260505231503 54 166 0.0 0.9 0.00 0.00 0.00 97 999.2
20260505230003 54 138 0.0 0.9 0.00 0.00 0.00 97 999.3
20260505224503 54 167 0.0 1.7 0.00 0.00 0.00 97 999.5
20260505223003 54 144 0.0 1.7 0.00 0.00 0.00 97 999.5
20260505221502 54 159 0.0 0.9 0.00 0.00 0.00 97 999.3
20260505220003 54 157 0.0 0.9 0.00 0.00 0.00 97 999.6
20260505214503 55 133 0.0 1.7 0.00 0.00 0.00 97 999.7
20260505213003 54 138 0.0 1.7 0.00 0.00 0.00 97 999.7
20260505211502 55 156 0.0 0.9 0.00 0.00 0.00 96 999.9
20260505210003 55 189 0.0 1.7 0.00 0.00 0.00 96 999.8
20260505204503 55 161 0.0 0.9 0.00 0.00 0.00 96 1000.0
20260505203002 55 170 0.0 1.7 0.00 0.00 0.00 95 999.8
20260505201503 56 178 0.0 1.7 0.00 0.00 0.00 94 999.9
20260505200003 56 143 0.0 1.7 0.00 0.00 0.00 94 999.7
20260505194502 56 146 0.0 1.7 0.00 0.00 0.00 93 999.7
20260505193003 56 234 0.0 1.7 0.00 0.00 0.00 93 999.7
20260505191503 57 136 0.0 1.7 0.00 0.00 0.00 91 999.5
20260505190003 58 149 0.0 1.7 0.00 0.00 0.00 91 999.7
20260505184503 58 135 0.0 1.7 0.00 0.00 0.00 90 999.5
20260505183003 58 137 0.9 1.7 0.00 0.00 0.00 89 999.5
20260505181502 58 246 0.0 1.7 0.00 0.00 0.00 87 999.7
20260505180003 59 225 0.0 0.9 0.00 0.00 0.00 86 999.6
20260505174503 59 218 0.0 1.7 0.00 0.00 0.00 85 999.5
20260505173002 59 133 0.0 1.7 0.00 0.00 0.00 83 999.7
20260505171503 60 171 0.9 1.7 0.00 0.00 0.00 81 999.7
20260505170003 60 178 0.0 2.6 0.00 0.00 0.00 80 999.5
20260505164502 61 176 0.0 2.6 0.00 0.00 0.00 80 999.6
20260505163003 61 183 0.0 1.7 0.00 0.00 0.00 79 999.4
20260505161503 61 136 0.0 2.6 0.00 0.00 0.00 76 999.9
20260505153002 62 280 0.9 3.5 0.00 0.00 0.00 74 999.8
20260505151503 63 148 0.0 2.6 0.00 0.00 0.00 72 999.8